Location: Biltmore Gardens
(41.6070°N, 83.4666°W)
Time: 21:41:54
(UTC+00:00)

A-11 Canister half - Pass Details

Date: 22 April 2021
Orbit: 1526 x 1682 km, 47.3° (Epoch: 16 May)

Event Time Altitude Azimuth Distance (km) Brightness Sun altitude
Rises 03:08:30 0° 297° (WNW) 4,940 12.7 -26.8°
Reaches altitude 10° 03:11:50 10° 292° (WNW) 3,947 11.9 -27.2°
Maximum altitude 03:21:20 47° 223° (SW) 2,094 9.5 -28.3°
Enters shadow 03:23:57 40° 187° (S) 2,282 9.5 -28.6°
